Location: Rattle Snake Springs
(32.1112°N, 104.4750°W)
Time: 19:08:38
(UTC-07:00)

Tiangong 1 - Visible Passes

Search period start: 21 November 2017 00:00
Search period end: 01 December 2017 00:00
Orbit: 284 x 308 km, 42.8° (Epoch: 21 November)

Date Brightness Start Highest point End Pass type
(mag) Time Alt. Az. Time Alt. Az. Time Alt. Az.
21 Nov 2.7 18:25:12 10° SSW 18:26:25 21° S 18:26:25 21° S visible
22 Nov 2.4 18:31:46 10° WSW 18:33:17 31° SW 18:33:17 31° SW visible
23 Nov 3.1 18:38:42 10° W 18:39:58 23° WNW 18:39:58 23° WNW visible
24 Nov 3.7 18:45:55 10° WNW 18:46:29 13° WNW 18:46:29 13° WNW visible
26 Nov 2.0 17:23:40 10° W 17:26:01 29° NNW 17:28:19 10° NE visible
27 Nov 2.8 17:30:38 10° WNW 17:32:27 17° NNW 17:34:16 10° NNE visible
28 Nov 3.2 17:37:51 10° NW 17:38:51 12° NNW 17:39:53 10° N visible
